Waseca, MN

4:47 AM CDT on September 26, 2017 (GMT -0500)
Waseca Municipal

Weather History for KACQ - December, 2011

Change the Weather History Date:

Wednesday, December 28, 2011

  Actual Average Record
Temperature  
Mean Temperature 30 °F -  
Max Temperature 39 °F 24 °F 49 °F (1984)
Min Temperature 21 °F 6 °F -25 °F (1924)
Degree Days  
Heating Degree Days 35    
Moisture  
Dew Point 21 °F    
Average Humidity 69    
Maximum Humidity 81    
Minimum Humidity 49    
Precipitation  
Precipitation 0.00 in - - ()
Sea Level Pressure  
Sea Level Pressure 29.83 in    
Wind  
Wind Speed 6 mph (South)    
Max Wind Speed 16 mph    
Max Gust Speed 21 mph    
Visibility 10 miles    
Events      
Averages and records for this station are not official NWS values.
T = Trace of Precipitation, MM = Missing Value Source: NWS Daily Summary

Daily Weather History Graph

Daily Weather History Graph

Search for Another Location

Airport or City:

Trip Planner

Search our weather history database for the weather conditions in past years. The results will help you decide how hot, cold, wet, or windy it might be!

Date:

Astronomy

Dec. 28, 2011 Rise Set
Actual Time 7:48 AM CST 4:42 PM CST
Civil Twilight 7:15 AM CST 5:16 PM CST
Nautical Twilight 6:38 AM CST 5:52 PM CST
Astronomical Twilight 6:03 AM CST 6:27 PM CST
Moon 10:05 AM CST (12/28) 9:29 PM CST (12/28)
Length of Visible Light 10h 00m
Length of Day
8h 54m
Waxing Crescent, 18% of the Moon is Illuminated
Dec 28
Waxing Crescent
Jan 1
First Quarter
Jan 9
Full
Jan 16
Last Quarter
Jan 23
New

Hourly Weather History & Observations

Time (CST) Temp. Windchill Dew Point Humidity Pressure Visibility Wind Dir Wind Speed Gust Speed Precip Events Conditions
12:17 AM 21.2 °F - 15.8 °F 80% 30.03 in 10.0 mi Calm Calm - N/A   Scattered Clouds
12:37 AM 21.2 °F 16.4 °F 14.0 °F 74% 30.03 in 10.0 mi WSW 3.5 mph - N/A   Clear
12:57 AM 23.0 °F 18.4 °F 17.6 °F 80% 30.01 in 10.0 mi South 3.5 mph - N/A   Clear
1:17 AM 23.0 °F 18.4 °F 17.6 °F 80% 30.00 in 10.0 mi South 3.5 mph - N/A   Scattered Clouds
1:37 AM 23.0 °F 18.4 °F 17.6 °F 80% 30.00 in 10.0 mi South 3.5 mph - N/A   Mostly Cloudy
1:57 AM 23.0 °F 18.4 °F 17.6 °F 80% 30.00 in 10.0 mi SSE 3.5 mph - N/A   Overcast
2:16 AM 23.0 °F 18.4 °F 17.6 °F 80% 30.00 in 10.0 mi South 3.5 mph - N/A   Overcast
2:37 AM 23.0 °F 18.4 °F 17.6 °F 80% 29.99 in 10.0 mi South 3.5 mph - N/A   Overcast
2:57 AM 23.0 °F 17.0 °F 17.6 °F 80% 29.99 in 10.0 mi SSE 4.6 mph - N/A   Overcast
3:16 AM 23.0 °F 18.4 °F 17.6 °F 80% 29.97 in 10.0 mi SE 3.5 mph - N/A   Overcast
3:37 AM 23.0 °F 17.0 °F 17.6 °F 80% 29.97 in 10.0 mi SE 4.6 mph - N/A   Overcast
3:57 AM 23.0 °F 18.4 °F 17.6 °F 80% 29.96 in 10.0 mi SE 3.5 mph - N/A   Overcast
4:17 AM 23.0 °F 18.4 °F 17.6 °F 80% 29.96 in 10.0 mi SE 3.5 mph - N/A   Scattered Clouds
4:37 AM 23.0 °F 17.0 °F 17.6 °F 80% 29.96 in 10.0 mi SE 4.6 mph - N/A   Scattered Clouds
4:56 AM 23.0 °F 15.8 °F 17.6 °F 80% 29.95 in 10.0 mi SE 5.8 mph - N/A   Scattered Clouds
5:17 AM 23.0 °F 17.0 °F 17.6 °F 80% 29.94 in 10.0 mi SE 4.6 mph - N/A   Scattered Clouds
5:37 AM 21.2 °F 14.9 °F 15.8 °F 80% 29.93 in 10.0 mi SSE 4.6 mph - N/A   Scattered Clouds
5:57 AM 23.0 °F 18.4 °F 17.6 °F 80% 29.93 in 10.0 mi SSE 3.5 mph - N/A   Mostly Cloudy
6:16 AM 23.0 °F 17.0 °F 17.6 °F 80% 29.93 in 10.0 mi SSE 4.6 mph - N/A   Overcast
6:37 AM 23.0 °F 13.9 °F 17.6 °F 80% 29.92 in 10.0 mi SSE 8.1 mph - N/A   Scattered Clouds
6:57 AM 23.0 °F 13.1 °F 17.6 °F 80% 29.92 in 10.0 mi South 9.2 mph - N/A   Scattered Clouds
7:17 AM 23.0 °F 15.8 °F 17.6 °F 80% 29.91 in 10.0 mi SSE 5.8 mph - N/A   Overcast
7:37 AM 23.0 °F 15.8 °F 17.6 °F 80% 29.91 in 10.0 mi SSE 5.8 mph - N/A   Mostly Cloudy
7:57 AM 23.0 °F 14.7 °F 15.8 °F 74% 29.91 in 10.0 mi SSE 6.9 mph - N/A   Clear
8:17 AM 23.0 °F 15.8 °F 15.8 °F 74% 29.90 in 10.0 mi SE 5.8 mph - N/A   Clear
8:37 AM 23.0 °F 14.7 °F 15.8 °F 74% 29.90 in 10.0 mi SE 6.9 mph - N/A   Clear
8:57 AM 24.8 °F 16.9 °F 15.8 °F 69% 29.90 in 10.0 mi SSE 6.9 mph - N/A   Clear
9:17 AM 26.6 °F 16.8 °F 15.8 °F 64% 29.89 in 10.0 mi SSE 10.4 mph - N/A   Clear
9:36 AM 28.4 °F 18.0 °F 17.6 °F 64% 29.88 in 10.0 mi SSE 12.7 mph 16.1 mph N/A   Clear
9:57 AM 32.0 °F 21.2 °F 19.4 °F 60% 29.88 in 10.0 mi SSE 16.1 mph - N/A   Clear
10:16 AM 32.0 °F 22.5 °F 19.4 °F 60% 29.87 in 10.0 mi SSE 12.7 mph - N/A   Clear
10:37 AM 33.8 °F 23.5 °F 19.4 °F 56% 29.86 in 10.0 mi South 16.1 mph 20.7 mph N/A   Clear
10:57 AM 33.8 °F 24.3 °F 19.4 °F 56% 29.85 in 10.0 mi South 13.8 mph - N/A   Clear
11:17 AM 35.6 °F 26.6 °F 23.0 °F 60% 29.84 in 10.0 mi South 13.8 mph - N/A   Clear
11:37 AM 35.6 °F 26.2 °F 23.0 °F 60% 29.83 in 10.0 mi South 15.0 mph - N/A   Clear
12:17 PM 35.6 °F 26.6 °F 21.2 °F 56% 29.81 in 10.0 mi South 13.8 mph - N/A   Clear
12:37 PM 35.6 °F 26.6 °F 21.2 °F 56% 29.79 in 10.0 mi SSW 13.8 mph - N/A   Clear
12:57 PM 39.2 °F 31.6 °F 23.0 °F 52% 29.78 in 10.0 mi South 12.7 mph - N/A   Clear
1:17 PM 39.2 °F 31.6 °F 23.0 °F 52% 29.78 in 10.0 mi SSW 12.7 mph 17.3 mph N/A   Clear
1:37 PM 39.2 °F 31.6 °F 21.2 °F 49% 29.78 in 10.0 mi SSW 12.7 mph 17.3 mph N/A   Clear
1:57 PM 39.2 °F 32.5 °F 21.2 °F 49% 29.76 in 10.0 mi SSW 10.4 mph 17.3 mph N/A   Clear
2:17 PM 39.2 °F 32.0 °F 21.2 °F 49% 29.76 in 10.0 mi South 11.5 mph - N/A   Clear
2:36 PM 39.2 °F 31.6 °F 21.2 °F 49% 29.76 in 10.0 mi South 12.7 mph - N/A   Clear
3:37 PM 39.2 °F 33.0 °F 23.0 °F 52% 29.76 in 10.0 mi SW 9.2 mph - N/A   Clear
3:57 PM 39.2 °F 35.0 °F 23.0 °F 52% 29.76 in 10.0 mi SSW 5.8 mph - N/A   Clear
4:17 PM 35.6 °F 31.7 °F 21.2 °F 56% 29.77 in 10.0 mi SSW 4.6 mph - N/A   Clear
4:37 PM 35.6 °F 31.7 °F 23.0 °F 60% 29.76 in 10.0 mi South 4.6 mph - N/A   Clear
4:57 PM 35.6 °F 31.7 °F 23.0 °F 60% 29.76 in 10.0 mi SSE 4.6 mph - N/A   Clear
5:17 PM 33.8 °F - 21.2 °F 60% 29.76 in 10.0 mi Calm Calm - N/A   Clear
5:37 PM 32.0 °F - 21.2 °F 64% 29.76 in 10.0 mi Calm Calm - N/A   Clear
5:57 PM 32.0 °F 28.7 °F 21.2 °F 64% 29.75 in 10.0 mi SSE 3.5 mph - N/A   Clear
6:17 PM 32.0 °F - 23.0 °F 69% 29.73 in 10.0 mi Calm Calm - N/A   Clear
6:37 PM 33.8 °F 29.6 °F 23.0 °F 65% 29.73 in 10.0 mi SSE 4.6 mph - N/A   Mostly Cloudy
6:57 PM 33.8 °F 28.6 °F 23.0 °F 65% 29.72 in 10.0 mi South 5.8 mph - N/A   Overcast
7:37 PM 33.8 °F 29.6 °F 23.0 °F 65% 29.70 in 10.0 mi South 4.6 mph - N/A   Mostly Cloudy
7:57 PM 33.8 °F 27.0 °F 23.0 °F 65% 29.70 in 10.0 mi South 8.1 mph - N/A   Mostly Cloudy
8:17 PM 35.6 °F 29.9 °F 24.8 °F 65% 29.69 in 10.0 mi South 6.9 mph - N/A   Mostly Cloudy
8:37 PM 35.6 °F 30.7 °F 24.8 °F 65% 29.67 in 10.0 mi SSE 5.8 mph - N/A   Overcast
8:57 PM 35.6 °F 29.9 °F 24.8 °F 65% 29.67 in 10.0 mi SSW 6.9 mph - N/A   Overcast
9:17 PM 35.6 °F 31.7 °F 24.8 °F 65% 29.68 in 10.0 mi SW 4.6 mph - N/A   Overcast
9:37 PM 35.6 °F 29.9 °F 24.8 °F 65% 29.66 in 10.0 mi SSE 6.9 mph - N/A   Overcast
9:57 PM 35.6 °F 28.6 °F 24.8 °F 65% 29.64 in 10.0 mi South 9.2 mph - N/A   Overcast
10:17 PM 35.6 °F 28.6 °F 26.6 °F 70% 29.64 in 10.0 mi South 9.2 mph - N/A   Drizzle
10:36 PM 35.6 °F 30.7 °F 28.4 °F 75% 29.62 in 10.0 mi South 5.8 mph - N/A   Overcast
10:57 PM 35.6 °F 32.8 °F 30.2 °F 81% 29.60 in 10.0 mi SSE 3.5 mph - N/A   Overcast
11:16 PM 35.6 °F 30.7 °F 30.2 °F 81% 29.59 in 10.0 mi South 5.8 mph - N/A   Mostly Cloudy
11:37 PM 35.6 °F 28.6 °F 30.2 °F 81% 29.56 in 10.0 mi SSE 9.2 mph - N/A   Scattered Clouds
11:57 PM 35.6 °F 28.0 °F 28.4 °F 75% 29.54 in 10.0 mi SSE 10.4 mph - N/A   Mostly Cloudy